2022-096C (53372 NORAD) Tracking and Keplerian Element Data

This shows tracking and keplerian element data for the satellite.

Feedback or suggestion? Click here.




ElementValue
Catalog53372
Name2022-096C
Epoch Orbit744
Epoch Day270.16268291
Epoch Year2022
RAAN171.2553
Inclination97.431
Eccentricity0.0002917
Argument of Perigee56.4156
Mean Anonmoly87.0338
Mean Motion15.24829051
Decay Rate6.003E-05
L11 53372U 22096C 22270.16268291 .00006003 00000+0 24469-3 0 9993
L22 53372 97.4310 171.2553 0002917 56.4156 87.0338 15.24829051 7447

Live tracking and technical data element details for 2022-096C (NORAD 53372). 2022-096C can be tracked NOW for your location showing map with azimuth and elevation plus other details from your city location.

Track the satellite on the map from your city or location and see movement details for azimuth, elevation, latitude, longitude, range, height, and movement on the map or in text.







IsCatalogInMostPopularTable: catalog: 53372, numindb: 2
Update: records affected: 1



GetName: 53372 2022-096C

Hit Count: updated at: Thu, 29 Sep 2022 10:56:26 GMT